FENGYUN 1C DEB, 36234

Orbit data source: Space-Track

FENGYUN 1C DEB, 36234 is space debris in SSO originally from a launch on Mon, 10 May 1999 UTC launched from the Taiyaun Space Center, China (TSC). Fengyun 1C debris stems from the Chinese weather satellite Fengyun-1C, which was intentionally destroyed by a Chinese anti-satellite missile in 2007. This event dramatically increased the amount of space debris, with thousands of trackable fragments posing hazards to satellites and human spaceflight. The Fengyun 1C debris cloud has become a focal point in discussions about space sustainability and the need for international regulations to prevent the creation of new debris.

Loading next visibility...
Identifier
36234, 1999-025DVK
Orbit
SSO
Country
Flag of CNCN / PRC
Related business
Manufacturer
Unknown
Mission
Spacecraft
Bus & Motor
Unknown
Mass
Unknown
Launch date (UTC)
1999-05-10 (27 years ago)
Launch vehicle
Unknown
Launch site
Taiyaun Space Center, China (TSC)
Object type
Payload
Rocket body
Debris
Shape & HBR
Unknown shape, 0.1 m
Radar Cross Section
Small (<0.1 m²)

Expand to show TLE details & history
Last TLE update: 5 days ago

TLE from 5 days ago
0 FENGYUN 1C DEB
1 36234U 99025DVK 26141.97179230  .00000098  00000-0  17066-3 0  9995
2 36234  98.9754 200.4024 0316758 343.7617  15.3547 13.45755848901022
Epoch: 2026-05-21T23:19Z
TLE epoch observation values (Epoch: 2026-05-21T23:19:22.854Z)
Latitude
-0.00007°
Longitude
-29.05215°
Altitude
863.18 km
Speed
7.533 km/s
True Right ascension
13h 21m 36s
True Declination
0° 00' 00"
Sunlit
Object was in full shadow at epoch
Visualization orbit readout
Latitude
Unknown
Longitude
Unknown
Altitude
Unknown
Speed
Unknown
Apparent Right ascension
Unknown
Apparent Declination
Unknown
Sunlit
N/A
Visualization observer readout
Local Sidereal Time
22:22:03
Azimuth
Unknown
Elevation
Unknown
Doppler factor
Unknown
Orbital elements
Apogee altitude
1,321.588 km
Perigee altitude
848.775 km
Semi-major axis
7,463.319 km
Eccentricity
0.03168
Inclination
98.9754°
RAAN
200.4024°
Arg. of periapsis
343.7617°
True anomaly
16.35388°
Mean anomaly
15.3547°
Eccentric anomaly
15.85039°
Mean motion
3.36624 °/min
Orbital period
106.94 mins
BSTAR
0.00017066
Loading maneuver chart data...
Computing Atmospheric mass density...

Documentation

Showing up to 5 results
|